| time (UTC) | temp F | wind direction | speed MPH | gust MPH | rain 1hr in | rain 24hr in | rain mn in | humidity % | barometer mb |
| 20260506032533 | 59 | 189 | 0.0 | 2.0 | 0.00 | 0.00 | 0.00 | 76 | 1010.3 |
| 20260506032034 | 59 | 189 | 0.0 | 1.0 | 0.00 | 0.00 | 0.00 | 76 | 1010.2 |
| 20260506031543 | 60 | 189 | 0.0 | 2.0 | 0.00 | 0.00 | 0.00 | 75 | 1010.2 |
| 20260506031033 | 60 | 189 | 0.0 | 2.0 | 0.00 | 0.00 | 0.00 | 75 | 1010.2 |
| 20260506030634 | 60 | 188 | 0.0 | 1.0 | 0.00 | 0.00 | 0.00 | 74 | 1010.2 |
| 20260506030046 | 60 | 189 | 0.0 | 1.0 | 0.00 | 0.00 | 0.00 | 74 | 1010.2 |
| 20260506025547 | 60 | 188 | 0.0 | 1.0 | 0.00 | 0.00 | 0.00 | 73 | 1010.2 |
| 20260506025046 | 61 | 188 | 0.0 | 2.0 | 0.00 | 0.00 | 0.00 | 72 | 1010.2 |
| 20260506024552 | 61 | 189 | 0.0 | 2.0 | 0.00 | 0.00 | 0.00 | 72 | 1010.0 |
| 20260506024046 | 61 | 191 | 0.0 | 4.0 | 0.00 | 0.00 | 0.00 | 71 | 1010.0 |
| 20260506023546 | 62 | 190 | 1.0 | 4.0 | 0.00 | 0.00 | 0.00 | 71 | 1010.0 |
| 20260506023054 | 62 | 180 | 1.0 | 3.0 | 0.00 | 0.00 | 0.00 | 70 | 1010.0 |
| 20260506022545 | 62 | 209 | 0.0 | 3.0 | 0.00 | 0.00 | 0.00 | 70 | 1010.1 |
| 20260506022045 | 62 | 182 | 1.0 | 3.0 | 0.00 | 0.00 | 0.00 | 69 | 1010.0 |
| 20260506021545 | 63 | 280 | 0.0 | 2.0 | 0.00 | 0.00 | 0.00 | 69 | 1010.1 |
| 20260506021046 | 63 | 280 | 0.0 | 3.0 | 0.00 | 0.00 | 0.00 | 69 | 1010.0 |
| 20260506020645 | 63 | 186 | 0.0 | 4.0 | 0.00 | 0.00 | 0.00 | 68 | 1009.9 |
| 20260506020037 | 63 | 272 | 1.0 | 5.0 | 0.00 | 0.00 | 0.00 | 68 | 1010.0 |
| 20260506015537 | 63 | 227 | 1.0 | 6.0 | 0.00 | 0.00 | 0.00 | 68 | 1009.9 |
| 20260506015037 | 63 | 142 | 1.0 | 6.0 | 0.00 | 0.00 | 0.00 | 67 | 1010.0 |
| 20260506014536 | 64 | 209 | 0.0 | 3.0 | 0.00 | 0.00 | 0.00 | 68 | 1010.0 |
| 20260506014035 | 64 | 180 | 1.0 | 4.0 | 0.00 | 0.00 | 0.00 | 67 | 1010.0 |
| 20260506013535 | 64 | 209 | 1.0 | 5.0 | 0.00 | 0.00 | 0.00 | 66 | 1009.9 |
| 20260506013035 | 64 | 161 | 1.0 | 5.0 | 0.00 | 0.00 | 0.00 | 67 | 1009.9 |
| 20260506012536 | 64 | 173 | 1.0 | 7.0 | 0.00 | 0.00 | 0.00 | 66 | 1010.0 |
| 20260506012036 | 65 | 142 | 2.0 | 7.0 | 0.00 | 0.00 | 0.00 | 64 | 1010.0 |
| 20260506011541 | 65 | 211 | 1.0 | 5.0 | 0.00 | 0.00 | 0.00 | 65 | 1010.0 |
| 20260506011034 | 65 | 153 | 1.0 | 5.0 | 0.00 | 0.00 | 0.00 | 65 | 1010.0 |
| 20260506010534 | 66 | 179 | 2.0 | 6.0 | 0.00 | 0.00 | 0.00 | 64 | 1010.1 |
| 20260506010050 | 66 | 174 | 2.0 | 4.0 | 0.00 | 0.00 | 0.00 | 64 | 1010.1 |
| 20260506005533 | 66 | 59 | 1.0 | 5.0 | 0.00 | 0.00 | 0.00 | 63 | 1010.1 |
| 20260506005034 | 67 | 75 | 0.0 | 5.0 | 0.00 | 0.00 | 0.00 | 63 | 1010.1 |
| 20260506004533 | 67 | 88 | 1.0 | 5.0 | 0.00 | 0.00 | 0.00 | 62 | 1010.0 |
| 20260506004033 | 67 | 136 | 1.0 | 5.0 | 0.00 | 0.00 | 0.00 | 64 | 1010.1 |
| 20260506003533 | 68 | 159 | 1.0 | 5.0 | 0.00 | 0.00 | 0.00 | 62 | 1010.1 |
| 20260506003033 | 68 | 111 | 0.0 | 7.0 | 0.00 | 0.00 | 0.00 | 62 | 1010.1 |
| 20260506002533 | 67 | 50 | 1.0 | 5.0 | 0.00 | 0.00 | 0.00 | 63 | 1010.0 |
| 20260506002032 | 67 | 152 | 1.0 | 5.0 | 0.00 | 0.00 | 0.00 | 62 | 1010.0 |
| 20260506001533 | 68 | 117 | 2.0 | 7.0 | 0.00 | 0.00 | 0.00 | 61 | 1010.0 |
| 20260506001033 | 67 | 155 | 3.0 | 7.0 | 0.00 | 0.00 | 0.00 | 61 | 1010.1 |
| 20260506000502 | 68 | 73 | 1.0 | 4.0 | 0.00 | 0.00 | 0.00 | 61 | 1010.1 |
| 20260506000101 | 68 | 201 | 1.0 | 8.0 | 0.00 | 0.00 | 0.00 | 60 | 1010.1 |
| 20260505235559 | 68 | 143 | 2.0 | 8.0 | 0.00 | 0.00 | 0.00 | 59 | 1010.2 |
| 20260505235058 | 69 | 224 | 1.0 | 5.0 | 0.00 | 0.00 | 0.00 | 59 | 1010.1 |
| 20260505234557 | 68 | 38 | 1.0 | 8.0 | 0.00 | 0.00 | 0.00 | 60 | 1010.2 |
| 20260505234057 | 68 | 169 | 1.0 | 8.0 | 0.00 | 0.00 | 0.00 | 59 | 1010.2 |
| 20260505233553 | 69 | 82 | 1.0 | 4.0 | 0.00 | 0.00 | 0.00 | 60 | 1010.3 |
| 20260505233104 | 68 | 84 | 2.0 | 6.0 | 0.00 | 0.00 | 0.00 | 59 | 1010.2 |
| 20260505232550 | 70 | 149 | 1.0 | 6.0 | 0.00 | 0.00 | 0.00 | 57 | 1010.3 |
| 20260505232049 | 69 | 167 | 1.0 | 4.0 | 0.00 | 0.00 | 0.00 | 58 | 1010.4 |
| 20260505231549 | 70 | 157 | 1.0 | 5.0 | 0.00 | 0.00 | 0.00 | 59 | 1010.4 |
| 20260505231051 | 69 | 152 | 2.0 | 5.0 | 0.00 | 0.00 | 0.00 | 59 | 1010.4 |
| 20260505230600 | 70 | 198 | 1.0 | 5.0 | 0.00 | 0.00 | 0.00 | 56 | 1010.4 |
| 20260505230101 | 70 | 70 | 1.0 | 5.0 | 0.00 | 0.00 | 0.00 | 58 | 1010.5 |
| 20260505225600 | 69 | 184 | 1.0 | 7.0 | 0.00 | 0.00 | 0.00 | 58 | 1010.6 |
| 20260505225058 | 70 | 144 | 3.0 | 7.0 | 0.00 | 0.00 | 0.00 | 56 | 1010.7 |
| 20260505224558 | 70 | 182 | 2.0 | 4.0 | 0.00 | 0.00 | 0.00 | 57 | 1010.6 |
| 20260505224056 | 70 | 132 | 1.0 | 6.0 | 0.00 | 0.00 | 0.00 | 57 | 1010.7 |
| 20260505223554 | 69 | 115 | 1.0 | 8.0 | 0.00 | 0.00 | 0.00 | 57 | 1010.7 |
| 20260505223052 | 70 | 166 | 2.0 | 8.0 | 0.00 | 0.00 | 0.00 | 57 | 1010.8 |
| 20260505222551 | 70 | 168 | 2.0 | 7.0 | 0.00 | 0.00 | 0.00 | 55 | 1010.7 |
| 20260505222050 | 70 | 123 | 1.0 | 7.0 | 0.00 | 0.00 | 0.00 | 58 | 1010.7 |
| 20260505221550 | 69 | 154 | 2.0 | 6.0 | 0.00 | 0.00 | 0.00 | 59 | 1010.8 |
| 20260505221046 | 68 | 119 | 2.0 | 9.0 | 0.00 | 0.00 | 0.00 | 59 | 1010.8 |
| 20260505220648 | 69 | 182 | 3.0 | 9.0 | 0.00 | 0.00 | 0.00 | 59 | 1010.8 |
| 20260505220043 | 69 | 234 | 2.0 | 8.0 | 0.00 | 0.00 | 0.00 | 57 | 1010.8 |
| 20260505215542 | 68 | 177 | 2.0 | 8.0 | 0.00 | 0.00 | 0.00 | 60 | 1010.9 |
| 20260505215040 | 68 | 194 | 2.0 | 7.0 | 0.00 | 0.00 | 0.00 | 59 | 1010.9 |
| 20260505214539 | 69 | 223 | 1.0 | 6.0 | 0.00 | 0.00 | 0.00 | 58 | 1010.9 |
| 20260505214040 | 69 | 150 | 2.0 | 6.0 | 0.00 | 0.00 | 0.00 | 58 | 1011.0 |
| 20260505213536 | 69 | 188 | 1.0 | 5.0 | 0.00 | 0.00 | 0.00 | 60 | 1011.0 |
| 20260505213035 | 68 | 106 | 2.0 | 6.0 | 0.00 | 0.00 | 0.00 | 58 | 1011.1 |
| 20260505212534 | 68 | 201 | 2.0 | 7.0 | 0.00 | 0.00 | 0.00 | 59 | 1011.1 |
| 20260505212033 | 69 | 194 | 2.0 | 7.0 | 0.00 | 0.00 | 0.00 | 58 | 1011.1 |
| 20260505211531 | 69 | 161 | 2.0 | 6.0 | 0.00 | 0.00 | 0.00 | 58 | 1011.1 |
| 20260505211029 | 69 | 135 | 2.0 | 6.0 | 0.00 | 0.00 | 0.00 | 58 | 1011.1 |
| 20260505210529 | 67 | 216 | 2.0 | 6.0 | 0.00 | 0.00 | 0.00 | 62 | 1011.1 |
| 20260505210028 | 67 | 71 | 2.0 | 6.0 | 0.00 | 0.00 | 0.00 | 61 | 1011.1 |
| 20260505205529 | 69 | 205 | 1.0 | 6.0 | 0.00 | 0.00 | 0.00 | 58 | 1011.2 |
| 20260505205025 | 68 | 147 | 2.0 | 6.0 | 0.00 | 0.00 | 0.00 | 62 | 1011.2 |
| 20260505204524 | 68 | 121 | 1.0 | 10.0 | 0.00 | 0.00 | 0.00 | 62 | 1011.3 |
| 20260505204024 | 67 | 52 | 2.0 | 10.0 | 0.00 | 0.00 | 0.00 | 62 | 1011.3 |
| 20260505203522 | 67 | 213 | 1.0 | 7.0 | 0.00 | 0.00 | 0.00 | 62 | 1011.3 |
| 20260505203029 | 67 | 163 | 3.0 | 7.0 | 0.00 | 0.00 | 0.00 | 61 | 1011.3 |
| 20260505202523 | 67 | 272 | 2.0 | 8.0 | 0.00 | 0.00 | 0.00 | 63 | 1011.3 |
| 20260505202017 | 67 | 141 | 1.0 | 8.0 | 0.00 | 0.00 | 0.00 | 66 | 1011.3 |
| 20260505201518 | 66 | 192 | 2.0 | 5.0 | 0.00 | 0.00 | 0.00 | 64 | 1011.4 |
| 20260505201015 | 66 | 159 | 3.0 | 5.0 | 0.00 | 0.00 | 0.00 | 64 | 1011.4 |
| 20260505200514 | 66 | 130 | 0.0 | 5.0 | 0.00 | 0.00 | 0.00 | 65 | 1011.4 |
| 20260505200012 | 67 | 153 | 2.0 | 5.0 | 0.00 | 0.00 | 0.00 | 64 | 1011.4 |
| 20260505195511 | 66 | 170 | 1.0 | 5.0 | 0.00 | 0.00 | 0.00 | 65 | 1011.4 |
| 20260505195009 | 65 | 170 | 1.0 | 5.0 | 0.00 | 0.00 | 0.00 | 68 | 1011.4 |
| 20260505194507 | 65 | 213 | 2.0 | 5.0 | 0.00 | 0.00 | 0.00 | 68 | 1011.4 |
| 20260505194007 | 64 | 184 | 1.0 | 6.0 | 0.00 | 0.00 | 0.00 | 68 | 1011.4 |
| 20260505193505 | 65 | 165 | 3.0 | 6.0 | 0.00 | 0.00 | 0.00 | 68 | 1011.5 |
| 20260505193003 | 64 | 73 | 2.0 | 6.0 | 0.00 | 0.00 | 0.00 | 69 | 1011.4 |
| 20260505192504 | 64 | 96 | 1.0 | 6.0 | 0.00 | 0.00 | 0.00 | 71 | 1011.4 |
| 20260505192101 | 63 | 130 | 2.0 | 7.0 | 0.00 | 0.00 | 0.00 | 71 | 1011.3 |
| 20260505191609 | 63 | 147 | 1.0 | 8.0 | 0.00 | 0.00 | 0.00 | 69 | 1011.4 |
| 20260505191101 | 63 | 130 | 2.0 | 8.0 | 0.00 | 0.00 | 0.00 | 70 | 1011.3 |
| 20260505190558 | 63 | 125 | 2.0 | 5.0 | 0.00 | 0.00 | 0.00 | 71 | 1011.4 |
| 20260505185553 | 63 | 165 | 2.0 | 6.0 | 0.00 | 0.00 | 0.00 | 71 | 1011.4 |
| 20260505185052 | 63 | 36 | 2.0 | 6.0 | 0.00 | 0.00 | 0.00 | 71 | 1011.4 |
| 20260505184550 | 63 | 352 | 1.0 | 8.0 | 0.00 | 0.00 | 0.00 | 72 | 1011.5 |
| 20260505184049 | 62 | 49 | 1.0 | 8.0 | 0.00 | 0.00 | 0.00 | 74 | 1011.4 |
| 20260505183547 | 62 | 150 | 2.0 | 6.0 | 0.00 | 0.00 | 0.00 | 72 | 1011.4 |
| 20260505183110 | 63 | 160 | 1.0 | 6.0 | 0.00 | 0.00 | 0.00 | 72 | 1011.4 |
| 20260505182544 | 63 | 64 | 2.0 | 6.0 | 0.00 | 0.00 | 0.00 | 72 | 1011.3 |
| 20260505182043 | 62 | 152 | 1.0 | 5.0 | 0.00 | 0.00 | 0.00 | 73 | 1011.3 |
| 20260505181542 | 61 | 37 | 2.0 | 6.0 | 0.00 | 0.00 | 0.00 | 74 | 1011.3 |
| 20260505181040 | 61 | 190 | 2.0 | 5.0 | 0.00 | 0.00 | 0.00 | 74 | 1011.3 |
| 20260505180640 | 61 | 77 | 1.0 | 5.0 | 0.00 | 0.00 | 0.00 | 75 | 1011.3 |
| 20260505180021 | 61 | 111 | 2.0 | 9.0 | 0.00 | 0.00 | 0.00 | 75 | 1011.3 |
| 20260505175519 | 60 | 174 | 2.0 | 5.0 | 0.00 | 0.00 | 0.00 | 75 | 1011.3 |
| 20260505175021 | 61 | 153 | 1.0 | 7.0 | 0.00 | 0.00 | 0.00 | 75 | 1011.4 |
| 20260505174516 | 61 | 39 | 2.0 | 7.0 | 0.00 | 0.00 | 0.00 | 75 | 1011.3 |
| 20260505174016 | 60 | 65 | 1.0 | 6.0 | 0.00 | 0.00 | 0.00 | 75 | 1011.3 |
| 20260505173514 | 61 | 157 | 1.0 | 4.0 | 0.00 | 0.00 | 0.00 | 75 | 1011.3 |
| 20260505173011 | 61 | 136 | 0.0 | 6.0 | 0.00 | 0.00 | 0.00 | 75 | 1011.2 |
| 20260505172511 | 60 | 215 | 1.0 | 6.0 | 0.00 | 0.00 | 0.00 | 75 | 1011.2 |
| 20260505172008 | 60 | 45 | 1.0 | 8.0 | 0.00 | 0.00 | 0.00 | 75 | 1011.2 |
| 20260505171507 | 60 | 54 | 1.0 | 8.0 | 0.00 | 0.00 | 0.00 | 75 | 1011.2 |
| 20260505171006 | 59 | 83 | 1.0 | 5.0 | 0.00 | 0.00 | 0.00 | 76 | 1011.3 |
| 20260505170506 | 59 | 191 | 1.0 | 5.0 | 0.00 | 0.00 | 0.00 | 76 | 1011.3 |
| 20260505170009 | 60 | 134 | 2.0 | 5.0 | 0.00 | 0.00 | 0.00 | 75 | 1011.2 |
| 20260505165504 | 59 | 186 | 2.0 | 6.0 | 0.00 | 0.00 | 0.00 | 75 | 1011.3 |
| 20260505165002 | 59 | 161 | 2.0 | 5.0 | 0.00 | 0.00 | 0.00 | 75 | 1011.2 |
| 20260505164601 | 60 | 130 | 1.0 | 3.0 | 0.00 | 0.00 | 0.00 | 75 | 1011.1 |
| 20260505164102 | 59 | 144 | 0.0 | 5.0 | 0.00 | 0.00 | 0.00 | 76 | 1011.1 |
| 20260505163558 | 59 | 121 | 1.0 | 7.0 | 0.00 | 0.00 | 0.00 | 76 | 1011.2 |
| 20260505163057 | 59 | 155 | 2.0 | 7.0 | 0.00 | 0.00 | 0.00 | 76 | 1011.1 |
| 20260505162555 | 59 | 223 | 1.0 | 3.0 | 0.00 | 0.00 | 0.00 | 76 | 1011.1 |
| 20260505162054 | 58 | 204 | 1.0 | 4.0 | 0.00 | 0.00 | 0.00 | 78 | 1011.1 |
| 20260505161614 | 58 | 150 | 1.0 | 4.0 | 0.00 | 0.00 | 0.00 | 77 | 1011.1 |
| 20260505161052 | 58 | 147 | 2.0 | 4.0 | 0.00 | 0.00 | 0.00 | 77 | 1011.1 |
| 20260505160549 | 58 | 175 | 1.0 | 4.0 | 0.00 | 0.00 | 0.00 | 78 | 1011.1 |
| 20260505153043 | 56 | 23 | 0.0 | 3.0 | 0.00 | 0.00 | 0.00 | 80 | 1010.9 |
| 20260505152540 | 55 | 23 | 1.0 | 3.0 | 0.00 | 0.00 | 0.00 | 80 | 1010.9 |
| 20260505152040 | 55 | 23 | 1.0 | 3.0 | 0.00 | 0.00 | 0.00 | 81 | 1010.9 |
| 20260505151539 | 54 | 23 | 1.0 | 3.0 | 0.00 | 0.00 | 0.00 | 81 | 1010.8 |
| 20260505151037 | 54 | 23 | 1.0 | 2.0 | 0.00 | 0.00 | 0.00 | 81 | 1010.8 |
| 20260505150638 | 54 | 23 | 1.0 | 2.0 | 0.00 | 0.00 | 0.00 | 81 | 1010.7 |
| 20260505140526 | 54 | 23 | 0.0 | 2.0 | 0.00 | 0.00 | 0.00 | 79 | 1010.2 |
| 20260505125027 | 54 | 24 | 1.0 | 2.0 | 0.00 | 0.00 | 0.00 | 79 | 1009.3 |
| 20260505124524 | 54 | 24 | 0.0 | 0.0 | 0.00 | 0.00 | 0.00 | 78 | 1009.3 |
| 20260505124023 | 54 | 24 | 0.0 | 0.0 | 0.00 | 0.00 | 0.00 | 78 | 1009.2 |
| 20260505123522 | 54 | 24 | 0.0 | 0.0 | 0.00 | 0.00 | 0.00 | 78 | 1009.1 |
| 20260505123021 | 54 | 24 | 0.0 | 0.0 | 0.00 | 0.00 | 0.00 | 78 | 1009.0 |
| 20260505122521 | 54 | 24 | 0.0 | 0.0 | 0.00 | 0.00 | 0.00 | 78 | 1009.0 |
| 20260505122021 | 54 | 24 | 0.0 | 0.0 | 0.00 | 0.00 | 0.00 | 77 | 1008.8 |
| 20260505121523 | 55 | 24 | 0.0 | 0.0 | 0.00 | 0.00 | 0.00 | 77 | 1008.9 |
| 20260505121020 | 55 | 24 | 0.0 | 0.0 | 0.00 | 0.00 | 0.00 | 77 | 1008.8 |
| 20260505120519 | 55 | 24 | 0.0 | 0.0 | 0.00 | 0.00 | 0.00 | 76 | 1008.8 |
| 20260505120048 | 55 | 24 | 0.0 | 0.0 | 0.00 | 0.00 | 0.00 | 76 | 1008.8 |
| 20260505115521 | 55 | 24 | 0.0 | 0.0 | 0.00 | 0.00 | 0.00 | 76 | 1008.8 |
| 20260505115016 | 55 | 24 | 0.0 | 0.0 | 0.00 | 0.00 | 0.00 | 76 | 1008.8 |
| 20260505114515 | 55 | 24 | 0.0 | 0.0 | 0.00 | 0.00 | 0.00 | 75 | 1008.6 |
| 20260505114016 | 55 | 24 | 0.0 | 2.0 | 0.00 | 0.00 | 0.00 | 75 | 1008.6 |
| 20260505113514 | 56 | 24 | 0.0 | 3.0 | 0.00 | 0.00 | 0.00 | 75 | 1008.7 |
| 20260505113013 | 56 | 24 | 1.0 | 3.0 | 0.00 | 0.00 | 0.00 | 74 | 1008.6 |
| 20260505112516 | 56 | 24 | 0.0 | 2.0 | 0.00 | 0.00 | 0.00 | 73 | 1008.5 |
| 20260505112013 | 56 | 24 | 0.0 | 2.0 | 0.00 | 0.00 | 0.00 | 73 | 1008.5 |
| 20260505111511 | 56 | 24 | 0.0 | 3.0 | 0.00 | 0.00 | 0.00 | 73 | 1008.4 |
| 20260505111011 | 56 | 24 | 2.0 | 3.0 | 0.00 | 0.00 | 0.00 | 72 | 1008.3 |
| 20260505110509 | 56 | 25 | 1.0 | 2.0 | 0.00 | 0.00 | 0.00 | 72 | 1008.4 |
| 20260505102003 | 57 | 25 | 0.0 | 2.0 | 0.00 | 0.00 | 0.00 | 66 | 1007.8 |
| 20260505101603 | 58 | 25 | 0.0 | 2.0 | 0.00 | 0.00 | 0.00 | 65 | 1007.8 |
| 20260505101101 | 58 | 25 | 0.0 | 1.0 | 0.00 | 0.00 | 0.00 | 65 | 1007.8 |
| 20260505100559 | 58 | 25 | 0.0 | 1.0 | 0.00 | 0.00 | 0.00 | 65 | 1007.7 |
| 20260505100058 | 58 | 25 | 0.0 | 2.0 | 0.00 | 0.00 | 0.00 | 64 | 1007.6 |
| 20260505095557 | 59 | 25 | 0.0 | 2.0 | 0.00 | 0.00 | 0.00 | 64 | 1007.5 |
| 20260505095056 | 59 | 25 | 0.0 | 2.0 | 0.00 | 0.00 | 0.00 | 63 | 1007.5 |
| 20260505094556 | 59 | 25 | 0.0 | 2.0 | 0.00 | 0.00 | 0.00 | 64 | 1007.4 |
| 20260505094055 | 59 | 25 | 0.0 | 2.0 | 0.00 | 0.00 | 0.00 | 62 | 1007.3 |
| 20260505093554 | 59 | 25 | 0.0 | 2.0 | 0.00 | 0.00 | 0.00 | 63 | 1007.3 |
| 20260505093056 | 59 | 25 | 0.0 | 2.0 | 0.00 | 0.00 | 0.00 | 63 | 1007.3 |
| 20260505092552 | 59 | 25 | 0.0 | 2.0 | 0.00 | 0.00 | 0.00 | 63 | 1007.2 |
| 20260505092051 | 59 | 25 | 0.0 | 2.0 | 0.00 | 0.00 | 0.00 | 62 | 1007.1 |
| 20260505091551 | 59 | 25 | 1.0 | 2.0 | 0.00 | 0.00 | 0.00 | 62 | 1007.2 |
| 20260505091052 | 59 | 25 | 1.0 | 2.0 | 0.00 | 0.00 | 0.00 | 63 | 1007.1 |
| 20260505090550 | 59 | 25 | 1.0 | 2.0 | 0.00 | 0.00 | 0.00 | 63 | 1007.0 |
| 20260505090051 | 60 | 25 | 0.0 | 2.0 | 0.00 | 0.00 | 0.00 | 61 | 1007.1 |
| 20260505085552 | 60 | 25 | 1.0 | 2.0 | 0.00 | 0.00 | 0.00 | 61 | 1007.1 |
| 20260505085048 | 60 | 25 | 0.0 | 2.0 | 0.00 | 0.00 | 0.00 | 61 | 1007.0 |
| 20260505084547 | 60 | 25 | 1.0 | 2.0 | 0.00 | 0.00 | 0.00 | 61 | 1007.0 |
| 20260505084047 | 60 | 25 | 1.0 | 2.0 | 0.00 | 0.00 | 0.00 | 60 | 1006.9 |
| 20260505083546 | 60 | 25 | 1.0 | 2.0 | 0.00 | 0.00 | 0.00 | 60 | 1006.9 |
| 20260505083049 | 60 | 25 | 1.0 | 2.0 | 0.00 | 0.00 | 0.00 | 62 | 1006.9 |
| 20260505082545 | 60 | 25 | 0.0 | 2.0 | 0.00 | 0.00 | 0.00 | 61 | 1006.8 |
| 20260505082044 | 60 | 25 | 1.0 | 2.0 | 0.00 | 0.00 | 0.00 | 60 | 1006.8 |
| 20260505081545 | 61 | 25 | 0.0 | 2.0 | 0.00 | 0.00 | 0.00 | 60 | 1006.8 |
| 20260505081044 | 61 | 25 | 1.0 | 2.0 | 0.00 | 0.00 | 0.00 | 60 | 1006.8 |
| 20260505080503 | 61 | 25 | 1.0 | 2.0 | 0.00 | 0.00 | 0.00 | 59 | 1006.9 |
| 20260505080100 | 61 | 25 | 0.0 | 2.0 | 0.00 | 0.00 | 0.00 | 59 | 1006.8 |
| 20260505075558 | 61 | 25 | 1.0 | 2.0 | 0.00 | 0.00 | 0.00 | 58 | 1006.8 |
| 20260505075057 | 61 | 25 | 1.0 | 2.0 | 0.00 | 0.00 | 0.00 | 58 | 1006.8 |
| 20260505074601 | 62 | 25 | 1.0 | 2.0 | 0.00 | 0.00 | 0.00 | 58 | 1006.8 |
| 20260505074056 | 62 | 25 | 1.0 | 2.0 | 0.00 | 0.00 | 0.00 | 57 | 1006.7 |
| 20260505073555 | 62 | 25 | 1.0 | 2.0 | 0.00 | 0.00 | 0.00 | 57 | 1006.6 |
| 20260505073105 | 62 | 25 | 1.0 | 2.0 | 0.00 | 0.00 | 0.00 | 57 | 1006.5 |
| 20260505072552 | 62 | 25 | 1.0 | 2.0 | 0.00 | 0.00 | 0.00 | 56 | 1006.4 |
| 20260505072051 | 62 | 25 | 1.0 | 4.0 | 0.00 | 0.00 | 0.00 | 55 | 1006.3 |
| 20260505071558 | 62 | 25 | 0.0 | 4.0 | 0.00 | 0.00 | 0.00 | 54 | 1006.3 |
| 20260505071050 | 62 | 357 | 2.0 | 4.0 | 0.00 | 0.00 | 0.00 | 55 | 1006.2 |
| 20260505070550 | 62 | 342 | 1.0 | 5.0 | 0.00 | 0.00 | 0.00 | 56 | 1006.2 |
| 20260505070049 | 63 | 331 | 1.0 | 5.0 | 0.00 | 0.00 | 0.00 | 55 | 1006.2 |
| 20260505065548 | 63 | 9 | 0.0 | 3.0 | 0.00 | 0.00 | 0.00 | 55 | 1006.1 |
| 20260505065047 | 63 | 9 | 1.0 | 5.0 | 0.00 | 0.00 | 0.00 | 54 | 1006.1 |
| 20260505064547 | 63 | 353 | 1.0 | 5.0 | 0.00 | 0.00 | 0.00 | 55 | 1006.1 |
| 20260505064047 | 63 | 21 | 1.0 | 4.0 | 0.00 | 0.00 | 0.00 | 55 | 1006.0 |
| 20260505063547 | 63 | 22 | 2.0 | 4.0 | 0.00 | 0.00 | 0.00 | 55 | 1006.0 |
| 20260505063048 | 63 | 328 | 0.0 | 2.0 | 0.00 | 0.00 | 0.00 | 55 | 1005.9 |
| 20260505062548 | 63 | 328 | 0.0 | 2.0 | 0.00 | 0.00 | 0.00 | 55 | 1005.9 |
| 20260505062047 | 63 | 328 | 0.0 | 2.0 | 0.00 | 0.00 | 0.00 | 56 | 1005.8 |
| 20260505061553 | 64 | 328 | 1.0 | 2.0 | 0.00 | 0.00 | 0.00 | 55 | 1005.8 |
| 20260505061047 | 64 | 328 | 0.0 | 3.0 | 0.00 | 0.00 | 0.00 | 54 | 1005.8 |
| 20260505060546 | 64 | 328 | 1.0 | 3.0 | 0.00 | 0.00 | 0.00 | 53 | 1005.9 |
| 20260505060046 | 64 | 46 | 1.0 | 3.0 | 0.00 | 0.00 | 0.00 | 53 | 1005.8 |
| 20260505055545 | 64 | 9 | 1.0 | 4.0 | 0.00 | 0.00 | 0.00 | 54 | 1005.8 |
| 20260505055045 | 64 | 302 | 1.0 | 3.0 | 0.00 | 0.00 | 0.00 | 52 | 1005.8 |
| 20260505054606 | 64 | 11 | 0.0 | 4.0 | 0.00 | 0.00 | 0.00 | 53 | 1005.8 |
| 20260505054047 | 65 | 17 | 1.0 | 4.0 | 0.00 | 0.00 | 0.00 | 52 | 1005.8 |
| 20260505053544 | 65 | 3 | 1.0 | 5.0 | 0.00 | 0.00 | 0.00 | 52 | 1005.8 |
| 20260505053058 | 65 | 265 | 1.0 | 5.0 | 0.00 | 0.00 | 0.00 | 52 | 1005.8 |
| 20260505052544 | 65 | 6 | 0.0 | 2.0 | 0.00 | 0.00 | 0.00 | 51 | 1005.7 |
| 20260505052045 | 65 | 9 | 1.0 | 3.0 | 0.00 | 0.00 | 0.00 | 51 | 1005.7 |
| 20260505051544 | 65 | 300 | 1.0 | 3.0 | 0.00 | 0.00 | 0.00 | 50 | 1005.6 |
| 20260505051044 | 66 | 20 | 1.0 | 3.0 | 0.00 | 0.00 | 0.00 | 51 | 1005.6 |
| 20260505050544 | 66 | 20 | 2.0 | 3.0 | 0.00 | 0.00 | 0.00 | 50 | 1005.6 |
| 20260505041545 | 67 | 39 | 0.0 | 2.0 | 0.00 | 0.00 | 0.00 | 49 | 1005.2 |
| 20260505041042 | 67 | 40 | 0.0 | 3.0 | 0.00 | 0.00 | 0.00 | 49 | 1005.2 |
| 20260505040544 | 67 | 232 | 1.0 | 3.0 | 0.00 | 0.00 | 0.00 | 49 | 1005.2 |
| 20260505040042 | 67 | 18 | 0.0 | 4.0 | 0.00 | 0.00 | 0.00 | 48 | 1005.2 |
| 20260505035541 | 68 | 21 | 1.0 | 4.0 | 0.00 | 0.00 | 0.00 | 48 | 1005.1 |
| 20260505035044 | 68 | 220 | 0.0 | 2.0 | 0.00 | 0.00 | 0.00 | 48 | 1005.0 |
| 20260505034541 | 68 | 219 | 0.0 | 2.0 | 0.00 | 0.00 | 0.00 | 49 | 1005.0 |
| 20260505034041 | 69 | 219 | 0.0 | 2.0 | 0.00 | 0.00 | 0.00 | 47 | 1004.9 |
| 20260505033541 | 69 | 219 | 0.0 | 0.0 | 0.00 | 0.00 | 0.00 | 49 | 1004.9 |
| 20260505033041 | 69 | 219 | 0.0 | 0.0 | 0.00 | 0.00 | 0.00 | 48 | 1004.8 |